Tracking 25963 objects as of 12-Aug-2022
HD Live streaming from Space Station
objects crossing your sky now

STARLINK-2752

Track STARLINK-2752 now!
10-day predictions
STARLINK-2752 is classified as:


NORAD ID: 48692
Int'l Code: 2021-044BG
Perigee: 553.2 km
Apogee: 555.5 km
Inclination: 53.1 °
Period: 95.6 minutes
Semi major axis: 6925 km
RCS: Unknown
Launch date: May 26, 2021
Source: United States (US)
Launch site: AIR FORCE EASTERN TEST RANGE (AFETR)
aabbcc
Your satellite tracking list
Your tracking list is empty




NASA's NSSDC Master Catalog

Two Line Element Set (TLE):
1 48692U 21044BG  22223.35186654 -.00001572  00000-0 -86634-4 0  9997
2 48692  53.0542 181.1244 0001622  74.4803 285.6365 15.06397356 68282
Source of the keplerian elements: AFSPC